Regional Weather Roundup
Issued by NWS Wilmington, NC

Home | Current Version | Previous Version | Text Only | Print | Product List | Glossary On
Versions: 1 2 3 4 5 6 7 8 9 10 11 12 13 14 15 16 17 18 19 20 21 22 23 24 25 26 27 28 29 30 31 32 33 34 35 36 37 38 39 40 41 42 43 44 45 46 47 48 49
000
ASUS42 KILM 261113
RWRILM
RWRILM
REGIONAL HOURLY WEATHER ROUNDUP
NATIONAL WEATHER SERVICE WILMINGTON NC
700 AM EDT FRI AUG 26 2016

NOTE: "FAIR" INDICATES FEW OR NO CLOUDS BELOW 12,000 FEET WITH NO
SIGNIFICANT WEATHER AND/OR OBSTRUCTIONS TO VISIBILITY.

...............WFO WILMINGTON COUNTY WARNING AREA...............

......COASTAL NC AND SC COUNTIES......

CITY           SKY/WX    TMP DP  RH WIND       PRES   REMARKS
WILMINGTON     FAIR      70  68  93 NE3       30.11R
N MYRTLE BEACH FAIR      71  69  93 CALM      30.10R
MYRTLE BEACH   PTCLDY    73  64  73 N6        30.12R

......INLAND NC AND SC COUNTIES.......

CITY           SKY/WX    TMP DP  RH WIND       PRES   REMARKS
LUMBERTON      FAIR      69  67  93 CALM      30.10R
ELIZABETHTOWN  FAIR      71  70  98 CALM      30.11R
WHITEVILLE     FAIR      70  68  94 CALM      30.11R
FLORENCE       FAIR      72  69  90 CALM      30.11R
DARLINGTON     FAIR      71  70  96 S3        30.11R
KINGSTREE      FAIR      66  64  94 CALM      30.11R
HARTSVILLE     MOCLDY    70  68  94 CALM      30.11R
BENNETTSVILLE  MOCLDY    73  72  94 CALM      30.10R
CONWAY         MOCLDY    66  64  94 CALM      30.11R
GEORGETOWN     FAIR      68  68 100 CALM      30.11R
MARION         FAIR      70  68  94 CALM      30.11R

....................REST OF NORTH CAROLINA......................

.........EASTERN NC.........

CITY           SKY/WX    TMP DP  RH WIND       PRES   REMARKS
CAPE HATTERAS  FAIR      73  68  84 W5        30.11R
JACKSONVILLE   MOCLDY    69  68  96 CALM      30.12R
MOREHEAD CITY  CLOUDY    73  70  90 CALM      30.11R
KENANSVILLE    FAIR      68  66  94 CALM      30.12R
NEW BERN       MOCLDY    70  68  93 CALM      30.12R
ELIZABETH CITY FAIR      73  70  90 S3        30.09R

.........CENTRAL NC.........

CITY           SKY/WX    TMP DP  RH WIND       PRES   REMARKS
RALEIGH DURHAM FAIR      73  70  90 SW5       30.10R
ROCKY MOUNT    FAIR      71  71 100 S5        30.09S
ROANOKE RAPIDS NOT AVBL
FAYETTEVILLE   FAIR      73  70  90 SW5       30.10R
HOFFMAN        MOCLDY    72  70  93 S1        30.10R

.........WESTERN NC.........

CITY           SKY/WX    TMP DP  RH WIND       PRES   REMARKS
CHARLOTTE      FAIR      73  68  84 CALM      30.12S
GREENSBORO     FAIR      75  72  90 W3        30.12R
HICKORY        NOT AVBL
BOONE          NOT AVBL
ASHEVILLE      NOT AVBL

.....................REST OF SOUTH CAROLINA.....................

.........EASTERN SC.........

CITY           SKY/WX    TMP DP  RH WIND       PRES   REMARKS
CHARLESTON     FAIR      73  70  90 N3        30.09R
BEAUFORT MCAS  FAIR      74  72  93 N6        30.10R
HILTON HEAD    CLEAR     72  72 100 N3        30.10R

.........CENTRAL SC.........

CITY           SKY/WX    TMP DP  RH WIND       PRES   REMARKS
COLUMBIA       FAIR      73  68  84 CALM      30.10S
ORANGEBURG     FAIR      69  68  96 W3        30.11R
SUMTER SHAW    FAIR      73  69  86 CALM      30.09R

.........WESTERN SC.........

CITY           SKY/WX    TMP DP  RH WIND       PRES   REMARKS
GREENVILLE     NOT AVBL
ROCK HILL      FAIR      71  68  90 SW3       30.12S
ANDERSON       FAIR      72  70  93 CALM      30.11F
CLEMSON        NOT AVBL
GREENWOOD      FAIR      72  67  84 CALM      30.13S


...................COASTAL AND OFFSHORE REPORTS..................

................LOCAL PIERS AND NC RESERVE................


STATION/POSITION TIME  SKY/WX   TEMP    WIND        PRES    VSBY
                                AIR SEA DIR/SP/G
                 (UTC)          (F)     (DEG/KT/KT) (MB)    (MI)
JOHNY MRCER PIER 1000            76 84  310/  4/  5 1018.1R
NC RESRV MASNBRO NOT AVBL
OCEAN CREST PIER NOT AVBL
SPRINGMAID  PIER 1000            74 84  300/  6/  7 1018.7R


................COASTAL AND OFFSHORE BUOYS................


STATION/POSITION TIME  SKY/WX   TEMP    WIND        PRES    VSBY
                                AIR SEA DIR/SP/G
                 (UTC)          (F)     (DEG/KT/KT) (MB)    (MI)
DIMNDSHOAL 41025 1050            81 84  250/  4/  6 1019.4R
WVE H/P(F/S)=  3/ 8 SWL H/P/D(F/S/D)=  3/ 70/ 8

CAPE LOOKOUT     1100            79        CALM     1019.3R
ONSLOW BAY 41036 NOT AVBL
ONSLOW BAY 41064 1008            81 84   10/  2/  4 1018.8R
ONSLOW BAY 41159 1055               84                N/A
WVE H/P(F/S)=  2/ 8

5SE WRITBC 41038 1008            80 83  330/  4/  6 1020.0R
MASNBO INL 41110 NOT AVBL
WILM HARBR 41108 1056               85                N/A
WVE H/P(F/S)=  2/ 8

27SE WRITB 41037 1008            81 82   80/  2/  4 1018.9R
FRYING PAN 41013 1000            81 84   40/  2/  6 1018.5R
SUNST NRSH 41024 1008            78 85  340/  4/  6 1018.6R
CAPRS NRSH 41029 1008            81 84   40/  4/  6 1018.4R
EDISTO     41004 1050            82 84   40/ 10/ 12 1018.0R
WVE H/P(F/S)=  3/ 7 SWL H/P/D(F/S/D)=  2/ 90/ 7



..........OFFSHORE BUOYS BEYOND 100 NM OFFSHORE...........
.....IN A TRIANGLE---HAT TO BERMUDA TO BAHAMAS TO HAT.....


STATION/POSITION TIME  SKY/WX   TEMP    WIND        PRES    VSBY
                                AIR SEA DIR/SP/G
                 (UTC)          (F)     (DEG/KT/KT) (MB)    (MI)
150E HAT   41001 NOT AVBL
W BERMUDA  41048 1050            82 84   30/ 12/ 14 1016.3R
WVE H/P(F/S)=  4/ 9 SWL H/P/D(F/S/D)=  3/130/ 9

ATLANTIC S 41049 1050            84 85  170/  8/ 10 1016.7R
WVE H/P(F/S)=  4/ 8 SWL H/P/D(F/S/D)=  3/140/ 8

E BAHAMAS  41046 1000            84 85  110/ 12/ 14 1014.0R
NE BAHAMAS 41047 1000            85 87  190/  8/ 12 1014.5R
120E CANVRL41010 NOT AVBL

END



USA.gov is the U.S. government's official web portal to all federal, state and local government web resources and services.